User: anonymous   Login
Location: Tafessasset
(32.5899°N, 5.4824°W)
Time: 09:05:35
(UTC+00:00)
Language:

STARLINK-1101 - Orbit

View from above orbital plane
View from above orbital plane
View from above satellite
View from above satellite

Ground track
Ground track

The orbit data is extracted from the following two-line orbital elements,

1 44919C 20001F   20158.17374002  .00007658  00000-0  52476-3 0  1580
2 44919  53.0001  65.1793 0001483 105.2143  42.0617 15.05558323    19
Epoch (UTC): 06 June 2020 04:10:11
Eccentricity: 0.0001483
inclination: 53.0001°
perigee height: 549 km
apogee height: 551 km
right ascension of ascending node: 65.1793°
argument of perigee: 105.2143°
revolutions per day: 15.05558323
mean anomaly at epoch: 42.0617°
orbit number at epoch: 1

The dashed part of the orbit path shows where the satellite is in the earth's shadow,  

DLR